Change the Weather History Date:

Friday, January 25, 2013

  Actual Average Record
Temperature  
Mean Temperature 74 °F 62 °F  
Max Temperature 85 °F 72 °F 88 °F (1952)
Min Temperature 62 °F 51 °F 35 °F (1892)
Degree Days  
Heating Degree Days 0 6  
Month to date heating degree days 157 161  
Since 1 July heating degree days 260 398  
Cooling Degree Days 9 2  
Month to date cooling degree days 40 50  
Year to date cooling degree days 40 50  
Growing Degree Days 23 (Base 50)    
Moisture  
Dew Point 62 °F    
Average Humidity 72    
Maximum Humidity 100    
Minimum Humidity 44    
Precipitation  
Precipitation T in 0.03 in 0.83 in (1984)
Month to date precipitation 0.98 0.84  
Year to date precipitation 0.98 0.84  
Sea Level Pressure  
Sea Level Pressure 30.10 in    
Wind  
Wind Speed 15 mph (SE)    
Max Wind Speed 26 mph    
Max Gust Speed 32 mph    
Visibility 8 miles    
Events      
T = Trace of Precipitation, MM = Missing Value Source: NWS Daily Summary

Daily Weather History Graph

Daily Weather History Graph

Search for Another Location

Airport or City:

Trip Planner

Search our weather history database for the weather conditions in past years. The results will help you decide how hot, cold, wet, or windy it might be!

Date:

Astronomy

Jan. 25, 2013 Rise Set
Actual Time 7:19 AM CST 6:11 PM CST
Civil Twilight 6:55 AM CST 6:35 PM CST
Nautical Twilight 6:27 AM CST 7:03 PM CST
Astronomical Twilight 6:00 AM CST 7:30 PM CST
Moon 5:09 PM CST (1/25) 5:59 AM CST (1/25)
Length of Visible Light 11h 39m
Length of Day
10h 51m
Waxing Gibbous, 98% of the Moon is Illuminated
Jan 25
Waxing Gibbous
Jan 26
Full
Feb 3
Last Quarter
Feb 10
New
Feb 17
First Quarter

Hourly Weather History & Observations

Time (CST) Temp. Heat Index Dew Point Humidity Pressure Visibility Wind Dir Wind Speed Gust Speed Precip Events Conditions
12:53 AM 64.9 °F - 62.1 °F 90% 30.17 in 10.0 mi SSE 8.1 mph - N/A   Clear
1:53 AM 64.0 °F - 62.1 °F 93% 30.14 in 10.0 mi SE 12.7 mph - N/A   Clear
2:53 AM 64.0 °F - 62.1 °F 93% 30.13 in 10.0 mi SSE 8.1 mph - N/A   Clear
3:50 AM 64.4 °F - 62.6 °F 94% 30.12 in 9.0 mi SE 9.2 mph - 0.00 in   Partly Cloudy
3:53 AM 64.0 °F - 62.1 °F 93% 30.12 in 9.0 mi SE 10.4 mph - 0.00 in   Partly Cloudy
4:53 AM 63.0 °F - 62.1 °F 97% 30.10 in 7.0 mi SE 10.4 mph - 0.00 in   Clear
5:25 AM 62.6 °F - 60.8 °F 94% 30.10 in 5.0 mi SE 11.5 mph - N/A   Partly Cloudy
5:53 AM 64.0 °F - 62.1 °F 93% 30.10 in 8.0 mi SE 11.5 mph - N/A   Mostly Cloudy
6:53 AM 64.9 °F - 63.0 °F 93% 30.11 in 7.0 mi SSE 13.8 mph - N/A   Overcast
7:22 AM 64.4 °F - 62.6 °F 94% 30.11 in 5.0 mi SSE 15.0 mph - N/A   Overcast
7:40 AM 64.4 °F - 62.6 °F 94% 30.11 in 2.5 mi SSE 13.8 mph - N/A   Overcast
7:50 AM 64.4 °F - 62.6 °F 94% 30.11 in 3.0 mi SSE 17.3 mph 23.0 mph N/A   Overcast
7:53 AM 64.0 °F - 63.0 °F 96% 30.11 in 3.0 mi SSE 13.8 mph - N/A   Overcast
8:09 AM 64.4 °F - 62.6 °F 94% 30.12 in 2.5 mi SSE 17.3 mph 24.2 mph N/A   Overcast
8:17 AM 64.4 °F - 62.6 °F 94% 30.12 in 1.5 mi SSE 13.8 mph - N/A   Overcast
8:53 AM 64.9 °F - 63.0 °F 93% 30.12 in 1.5 mi SSE 15.0 mph - N/A   Overcast
9:00 AM 66.2 °F - 62.6 °F 88% 30.13 in 10.0 mi SSE 13.8 mph - N/A   Mostly Cloudy
9:14 AM 66.2 °F - 62.6 °F 88% 30.13 in 10.0 mi SSE 16.1 mph 20.7 mph N/A   Scattered Clouds
9:53 AM 70.0 °F - 63.0 °F 78% 30.14 in 10.0 mi SSE 13.8 mph 23.0 mph N/A   Clear
10:53 AM 75.0 °F - 63.0 °F 66% 30.14 in 10.0 mi SSE 16.1 mph 24.2 mph N/A   Clear
11:53 AM 78.1 °F - 62.1 °F 58% 30.12 in 10.0 mi SSE 17.3 mph 24.2 mph N/A   Clear
12:53 PM 81.0 °F 81.7 °F 61.0 °F 50% 30.08 in 10.0 mi SSE 20.7 mph 27.6 mph N/A   Clear
1:53 PM 84.0 °F 84.4 °F 61.0 °F 46% 30.04 in 10.0 mi SSE 20.7 mph 27.6 mph N/A   Clear
2:53 PM 84.0 °F 84.9 °F 63.0 °F 49% 30.02 in 10.0 mi SE 18.4 mph 29.9 mph N/A   Clear
3:53 PM 82.0 °F 83.1 °F 63.0 °F 52% 30.01 in 10.0 mi SE 21.9 mph 31.1 mph N/A   Clear
4:53 PM 79.0 °F - 62.1 °F 56% 30.01 in 10.0 mi SE 21.9 mph 31.1 mph N/A   Clear
5:53 PM 75.9 °F - 62.1 °F 62% 30.03 in 10.0 mi SE 20.7 mph - N/A   Clear
6:53 PM 72.0 °F - 62.1 °F 71% 30.05 in 10.0 mi SE 13.8 mph - N/A   Clear
7:53 PM 70.0 °F - 63.0 °F 78% 30.06 in 10.0 mi SE 12.7 mph - N/A   Clear
8:53 PM 69.1 °F - 63.0 °F 81% 30.07 in 10.0 mi SE 10.4 mph - N/A   Clear
9:53 PM 66.9 °F - 62.1 °F 84% 30.09 in 10.0 mi SE 8.1 mph - N/A   Clear
10:53 PM 66.9 °F - 62.1 °F 84% 30.09 in 10.0 mi SE 11.5 mph - N/A   Clear
11:53 PM 68.0 °F - 63.0 °F 84% 30.08 in 10.0 mi SSE 13.8 mph - N/A   Clear